Time,TemperatureF,DewpointF,PressureIn,WindDirection,WindDirectionDegrees,WindSpeedMPH,WindSpeedGustMPH,Humidity,HourlyPrecipIn,Conditions,Clouds,dailyrainin,SoftwareType,DateUTC
2013-03-08 00:01:00,23.0,15.0,-100.00,East,100,7.0,8.0,69,0.00,,,-99.99,,2013-03-08 07:01:00,
2013-03-08 00:11:00,22.0,14.0,-100.00,East,85,4.0,7.0,69,0.00,,,-99.99,,2013-03-08 07:11:00,
2013-03-08 00:21:00,22.0,14.0,-100.00,East,85,4.0,7.0,69,0.00,,,-99.99,,2013-03-08 07:21:00,
2013-03-08 00:31:00,23.0,15.0,-100.00,East,90,3.0,9.0,69,0.00,,,-99.99,,2013-03-08 07:31:00,
2013-03-08 00:42:00,23.0,14.0,-100.00,East,85,6.0,7.0,69,0.00,,,-99.99,,2013-03-08 07:42:00,
2013-03-08 00:51:00,22.0,14.0,-100.00,ENE,75,6.0,8.0,69,0.00,,,-99.99,,2013-03-08 07:51:00,
2013-03-08 01:01:00,22.0,14.0,-100.00,ESE,105,5.0,8.0,69,0.00,,,-99.99,,2013-03-08 08:01:00,
2013-03-08 01:11:00,22.0,14.0,-100.00,East,85,6.0,7.0,69,0.00,,,-99.99,,2013-03-08 08:11:00,
2013-03-08 01:21:00,22.0,13.0,-100.00,ENE,75,4.0,9.0,69,0.00,,,-99.99,,2013-03-08 08:21:00,
2013-03-08 01:32:00,22.0,13.0,-100.00,ESE,115,3.0,6.0,69,0.00,,,-99.99,,2013-03-08 08:32:00,
2013-03-08 01:42:00,23.0,15.0,-100.00,ENE,65,4.0,10.0,69,0.00,,,-99.99,,2013-03-08 08:42:00,
2013-03-08 01:52:00,22.0,14.0,-100.00,ESE,110,5.0,7.0,69,0.00,,,-99.99,,2013-03-08 08:52:00,
2013-03-08 02:03:00,22.0,13.0,-100.00,ESE,105,5.0,7.0,68,0.00,,,-99.99,,2013-03-08 09:03:00,
2013-03-08 02:11:00,22.0,13.0,-100.00,East,80,5.0,12.0,68,0.00,,,-99.99,,2013-03-08 09:11:00,
2013-03-08 02:21:00,22.0,13.0,-100.00,East,85,6.0,7.0,68,0.00,,,-99.99,,2013-03-08 09:21:00,
2013-03-08 02:32:00,22.0,13.0,-100.00,East,90,7.0,8.0,68,0.00,,,-99.99,,2013-03-08 09:32:00,
2013-03-08 02:42:00,22.0,14.0,-100.00,East,90,5.0,8.0,69,0.00,,,-99.99,,2013-03-08 09:42:00,
2013-03-08 02:52:00,22.0,13.0,-100.00,East,80,6.0,7.0,69,0.00,,,-99.99,,2013-03-08 09:52:00,
2013-03-08 03:01:00,22.0,13.0,-100.00,ENE,75,6.0,7.0,69,0.00,,,-99.99,,2013-03-08 10:01:00,
2013-03-08 03:11:00,22.0,14.0,-100.00,East,90,6.0,7.0,70,0.00,,,-99.99,,2013-03-08 10:11:00,
2013-03-08 03:21:00,22.0,14.0,-100.00,East,80,7.0,9.0,70,0.00,,,-99.99,,2013-03-08 10:21:00,
2013-03-08 03:32:00,22.0,14.0,-100.00,East,90,6.0,9.0,70,0.00,,,-99.99,,2013-03-08 10:32:00,
2013-03-08 03:42:00,22.0,14.0,-100.00,East,80,5.0,9.0,70,0.00,,,-99.99,,2013-03-08 10:42:00,
2013-03-08 03:51:00,22.0,14.0,-100.00,ENE,75,6.0,7.0,70,0.00,,,-99.99,,2013-03-08 10:51:00,
2013-03-08 04:01:00,23.0,15.0,-100.00,NE,50,4.0,9.0,70,0.00,,,-99.99,,2013-03-08 11:01:00,
2013-03-08 04:11:00,24.0,15.0,-100.00,ENE,65,6.0,9.0,70,0.00,,,-99.99,,2013-03-08 11:11:00,
2013-03-08 04:21:00,23.0,15.0,-100.00,NE,55,6.0,9.0,70,0.00,,,-99.99,,2013-03-08 11:21:00,
2013-03-08 04:32:00,21.0,13.0,-100.00,East,95,4.0,9.0,70,0.00,,,-99.99,,2013-03-08 11:32:00,
2013-03-08 04:42:00,21.0,13.0,-100.00,East,85,4.0,6.0,70,0.00,,,-99.99,,2013-03-08 11:42:00,
2013-03-08 04:52:00,20.0,13.0,-100.00,East,95,4.0,6.0,71,0.00,,,-99.99,,2013-03-08 11:52:00,
2013-03-08 05:01:00,21.0,13.0,-100.00,East,85,6.0,7.0,71,0.00,,,-99.99,,2013-03-08 12:01:00,
2013-03-08 05:11:00,21.0,13.0,-100.00,East,85,4.0,6.0,72,0.00,,,-99.99,,2013-03-08 12:11:00,
2013-03-08 05:22:00,21.0,14.0,-100.00,East,90,4.0,6.0,72,0.00,,,-99.99,,2013-03-08 12:22:00,
2013-03-08 05:32:00,20.0,13.0,-100.00,East,90,5.0,6.0,72,0.00,,,-99.99,,2013-03-08 12:32:00,
2013-03-08 05:43:00,20.0,13.0,-100.00,ENE,75,6.0,7.0,73,0.00,,,-99.99,,2013-03-08 12:43:00,
2013-03-08 05:52:00,21.0,14.0,-100.00,ENE,75,5.0,7.0,73,0.00,,,-99.99,,2013-03-08 12:52:00,
2013-03-08 06:01:00,21.0,14.0,-100.00,East,80,4.0,7.0,73,0.00,,,-99.99,,2013-03-08 13:01:00,
2013-03-08 06:11:00,21.0,14.0,-100.00,ENE,75,4.0,6.0,74,0.00,,,-99.99,,2013-03-08 13:11:00,
2013-03-08 06:21:00,21.0,14.0,-100.00,East,100,3.0,7.0,74,0.00,,,-99.99,,2013-03-08 13:21:00,
2013-03-08 06:32:00,21.0,14.0,-100.00,East,100,4.0,6.0,74,0.00,,,-99.99,,2013-03-08 13:32:00,
2013-03-08 06:42:00,21.0,14.0,-100.00,East,90,4.0,6.0,74,0.00,,,-99.99,,2013-03-08 13:42:00,
2013-03-08 06:52:00,20.0,14.0,-100.00,ESE,110,4.0,6.0,74,0.00,,,-99.99,,2013-03-08 13:52:00,
2013-03-08 07:02:00,21.0,14.0,-100.00,East,95,4.0,6.0,74,0.00,,,-99.99,,2013-03-08 14:02:00,
2013-03-08 07:11:00,21.0,14.0,-100.00,East,90,6.0,7.0,75,0.00,,,-99.99,,2013-03-08 14:11:00,
2013-03-08 07:22:00,21.0,15.0,-100.00,East,95,6.0,6.0,76,0.00,,,-99.99,,2013-03-08 14:22:00,
2013-03-08 07:32:00,21.0,15.0,-100.00,ESE,110,6.0,9.0,76,0.00,,,-99.99,,2013-03-08 14:32:00,
2013-03-08 07:42:00,21.0,15.0,-100.00,ENE,75,5.0,7.0,76,0.00,,,-99.99,,2013-03-08 14:42:00,
2013-03-08 07:52:00,22.0,16.0,-100.00,East,100,6.0,7.0,76,0.00,,,-99.99,,2013-03-08 14:52:00,
2013-03-08 08:03:00,23.0,17.0,-100.00,East,80,4.0,7.0,76,0.00,,,-99.99,,2013-03-08 15:03:00,
2013-03-08 08:11:00,25.0,18.0,-100.00,East,100,4.0,9.0,75,0.00,,,-99.99,,2013-03-08 15:11:00,
2013-03-08 08:22:00,26.0,19.0,-100.00,East,100,6.0,7.0,73,0.00,,,-99.99,,2013-03-08 15:22:00,
2013-03-08 08:32:00,27.0,19.0,-100.00,East,85,3.0,7.0,72,0.00,,,-99.99,,2013-03-08 15:32:00,
2013-03-08 08:42:00,28.0,19.0,-100.00,East,90,4.0,7.0,69,0.00,,,-99.99,,2013-03-08 15:42:00,
2013-03-08 08:52:00,28.0,19.0,-100.00,East,90,3.0,4.0,67,0.00,,,-99.99,,2013-03-08 15:52:00,
2013-03-08 09:01:00,29.0,19.0,-100.00,ENE,70,3.0,7.0,66,0.00,,,-99.99,,2013-03-08 16:01:00,
2013-03-08 09:11:00,30.0,20.0,-100.00,East,85,3.0,4.0,65,0.00,,,-99.99,,2013-03-08 16:11:00,
2013-03-08 09:21:00,34.0,21.0,-100.00,ENE,75,3.0,4.0,60,0.00,,,-99.99,,2013-03-08 16:21:00,
2013-03-08 09:32:00,33.0,20.0,-100.00,ENE,75,3.0,4.0,58,0.00,,,-99.99,,2013-03-08 16:32:00,
2013-03-08 09:42:00,34.0,20.0,-100.00,East,85,2.0,4.0,56,0.00,,,-99.99,,2013-03-08 16:42:00,
2013-03-08 09:52:00,36.0,21.0,-100.00,East,85,2.0,4.0,53,0.00,,,-99.99,,2013-03-08 16:52:00,
2013-03-08 10:02:00,36.0,20.0,-100.00,ESE,110,3.0,4.0,51,0.00,,,-99.99,,2013-03-08 17:02:00,
2013-03-08 10:11:00,39.0,21.0,-100.00,East,90,2.0,4.0,48,0.00,,,-99.99,,2013-03-08 17:11:00,
2013-03-08 10:21:00,40.0,20.0,-100.00,East,95,3.0,4.0,44,0.00,,,-99.99,,2013-03-08 17:21:00,
2013-03-08 10:32:00,42.0,21.0,-100.00,East,100,1.0,3.0,42,0.00,,,-99.99,,2013-03-08 17:32:00,
2013-03-08 10:42:00,44.0,22.0,-100.00,NNW,330,1.0,2.0,41,0.00,,,-99.99,,2013-03-08 17:42:00,
2013-03-08 10:52:00,46.0,22.0,-100.00,WNW,295,11.0,14.0,37,0.00,,,-99.99,,2013-03-08 17:52:00,
2013-03-08 11:02:00,44.0,20.0,-100.00,WNW,285,13.0,15.0,38,0.00,,,-99.99,,2013-03-08 18:02:00,
2013-03-08 11:11:00,43.0,20.0,-100.00,NW,305,12.0,16.0,38,0.00,,,-99.99,,2013-03-08 18:11:00,
2013-03-08 11:21:00,43.0,20.0,-100.00,WNW,300,14.0,18.0,38,0.00,,,-99.99,,2013-03-08 18:21:00,
2013-03-08 11:32:00,43.0,20.0,-100.00,WNW,295,16.0,17.0,38,0.00,,,-99.99,,2013-03-08 18:32:00,
2013-03-08 11:42:00,43.0,20.0,-100.00,WNW,290,11.0,16.0,38,0.00,,,-99.99,,2013-03-08 18:42:00,
2013-03-08 11:52:00,44.0,20.0,-100.00,WNW,300,14.0,17.0,38,0.00,,,-99.99,,2013-03-08 18:52:00,
2013-03-08 12:01:00,44.0,20.0,-100.00,WNW,300,15.0,17.0,37,0.00,,,-99.99,,2013-03-08 19:01:00,
2013-03-08 12:11:00,44.0,19.0,-100.00,WNW,295,17.0,19.0,36,0.00,,,-99.99,,2013-03-08 19:11:00,
2013-03-08 12:21:00,45.0,19.0,-100.00,WNW,295,15.0,18.0,35,0.00,,,-99.99,,2013-03-08 19:21:00,
2013-03-08 12:32:00,46.0,20.0,-100.00,WNW,290,14.0,17.0,35,0.00,,,-99.99,,2013-03-08 19:32:00,
2013-03-08 12:42:00,46.0,20.0,-100.00,WNW,290,12.0,19.0,34,0.00,,,-99.99,,2013-03-08 19:42:00,
2013-03-08 12:52:00,47.0,20.0,-100.00,West,280,13.0,18.0,34,0.00,,,-99.99,,2013-03-08 19:52:00,
2013-03-08 13:01:00,46.0,19.0,-100.00,WNW,295,16.0,18.0,34,0.00,,,-99.99,,2013-03-08 20:01:00,
2013-03-08 13:11:00,46.0,19.0,-100.00,WNW,295,17.0,20.0,34,0.00,,,-99.99,,2013-03-08 20:11:00,
2013-03-08 13:21:00,45.0,19.0,-100.00,WNW,290,16.0,21.0,34,0.00,,,-99.99,,2013-03-08 20:21:00,
2013-03-08 13:32:00,46.0,19.0,-100.00,WNW,300,9.0,21.0,34,0.00,,,-99.99,,2013-03-08 20:32:00,
2013-03-08 13:42:00,45.0,19.0,-100.00,WNW,290,18.0,24.0,34,0.00,,,-99.99,,2013-03-08 20:42:00,
2013-03-08 13:52:00,46.0,19.0,-100.00,WNW,285,12.0,19.0,34,0.00,,,-99.99,,2013-03-08 20:52:00,
2013-03-08 14:02:00,46.0,20.0,-100.00,West,270,8.0,14.0,34,0.00,,,-99.99,,2013-03-08 21:02:00,
2013-03-08 14:11:00,46.0,20.0,-100.00,WNW,295,11.0,14.0,34,0.00,,,-99.99,,2013-03-08 21:11:00,
2013-03-08 14:21:00,46.0,19.0,-100.00,WNW,295,9.0,16.0,34,0.00,,,-99.99,,2013-03-08 21:21:00,
2013-03-08 14:32:00,47.0,20.0,-100.00,WNW,295,15.0,21.0,34,0.00,,,-99.99,,2013-03-08 21:32:00,
2013-03-08 14:42:00,46.0,21.0,-100.00,WNW,295,13.0,24.0,36,0.00,,,-99.99,,2013-03-08 21:42:00,
2013-03-08 14:52:00,46.0,21.0,-100.00,NW,310,13.0,19.0,36,0.00,,,-99.99,,2013-03-08 21:52:00,
2013-03-08 15:01:00,46.0,22.0,-100.00,WNW,300,11.0,21.0,37,0.00,,,-99.99,,2013-03-08 22:01:00,
2013-03-08 15:11:00,46.0,22.0,-100.00,WNW,285,12.0,19.0,38,0.00,,,-99.99,,2013-03-08 22:11:00,
2013-03-08 15:22:00,45.0,22.0,-100.00,WNW,290,11.0,17.0,39,0.00,,,-99.99,,2013-03-08 22:22:00,
2013-03-08 15:32:00,45.0,22.0,-100.00,WNW,290,12.0,17.0,40,0.00,,,-99.99,,2013-03-08 22:32:00,
2013-03-08 15:42:00,45.0,22.0,-100.00,West,280,7.0,13.0,40,0.00,,,-99.99,,2013-03-08 22:42:00,
2013-03-08 15:52:00,45.0,23.0,-100.00,WNW,285,10.0,12.0,40,0.00,,,-99.99,,2013-03-08 22:52:00,
2013-03-08 16:01:00,45.0,23.0,-100.00,West,270,3.0,12.0,41,0.00,,,-99.99,,2013-03-08 23:01:00,
2013-03-08 16:11:00,43.0,23.0,-100.00,East,100,12.0,18.0,43,0.00,,,-99.99,,2013-03-08 23:11:00,
2013-03-08 16:21:00,42.0,23.0,-100.00,ESE,105,9.0,16.0,46,0.00,,,-99.99,,2013-03-08 23:21:00,
2013-03-08 16:32:00,42.0,24.0,-100.00,East,90,7.0,13.0,46,0.00,,,-99.99,,2013-03-08 23:32:00,
2013-03-08 16:42:00,42.0,24.0,-100.00,ESE,110,4.0,7.0,48,0.00,,,-99.99,,2013-03-08 23:42:00,
2013-03-08 16:52:00,42.0,25.0,-100.00,SE,125,4.0,9.0,48,0.00,,,-99.99,,2013-03-08 23:52:00,
2013-03-08 17:02:00,42.0,25.0,-100.00,ESE,115,4.0,7.0,49,0.00,,,-99.99,,2013-03-09 00:02:00,
2013-03-08 17:11:00,42.0,25.0,-100.00,ESE,110,0.0,3.0,49,0.00,,,-99.99,,2013-03-09 00:11:00,
2013-03-08 17:22:00,42.0,25.0,-100.00,ESE,105,0.0,1.0,49,0.00,,,-99.99,,2013-03-09 00:22:00,
2013-03-08 17:32:00,42.0,26.0,-100.00,NW,305,2.0,5.0,50,0.00,,,-99.99,,2013-03-09 00:32:00,
2013-03-08 17:42:00,42.0,25.0,-100.00,West,280,0.0,4.0,51,0.00,,,-99.99,,2013-03-09 00:42:00,
2013-03-08 17:52:00,41.0,26.0,-100.00,West,275,10.0,15.0,53,0.00,,,-99.99,,2013-03-09 00:52:00,
2013-03-08 18:01:00,41.0,27.0,-100.00,WNW,290,12.0,13.0,55,0.00,,,-99.99,,2013-03-09 01:01:00,
2013-03-08 18:12:00,41.0,27.0,-100.00,WNW,285,9.0,15.0,57,0.00,,,-99.99,,2013-03-09 01:12:00,
2013-03-08 18:21:00,40.0,27.0,-100.00,West,280,8.0,11.0,58,0.00,,,-99.99,,2013-03-09 01:21:00,
2013-03-08 18:32:00,40.0,28.0,-100.00,West,265,5.0,9.0,60,0.00,,,-99.99,,2013-03-09 01:32:00,
2013-03-08 18:42:00,39.0,27.0,-100.00,West,260,6.0,8.0,62,0.00,,,-99.99,,2013-03-09 01:42:00,
2013-03-08 18:51:00,39.0,28.0,-100.00,WNW,290,6.0,7.0,64,0.00,,,-99.99,,2013-03-09 01:51:00,
2013-03-08 19:01:00,39.0,28.0,-100.00,West,280,6.0,7.0,65,0.00,,,-99.99,,2013-03-09 02:01:00,
2013-03-08 19:11:00,38.0,29.0,-100.00,WNW,285,7.0,9.0,68,0.00,,,-99.99,,2013-03-09 02:11:00,
2013-03-08 19:21:00,38.0,29.0,-100.00,West,280,7.0,10.0,69,0.00,,,-99.99,,2013-03-09 02:21:00,
2013-03-08 19:31:00,38.0,29.0,-100.00,WNW,285,6.0,9.0,70,0.00,,,-99.99,,2013-03-09 02:31:00,
2013-03-08 19:41:00,37.0,29.0,-100.00,WNW,285,7.0,9.0,72,0.00,,,-99.99,,2013-03-09 02:41:00,
2013-03-08 19:51:00,37.0,29.0,-100.00,West,280,7.0,9.0,73,0.00,,,-99.99,,2013-03-09 02:51:00,
2013-03-08 20:01:00,37.0,30.0,-100.00,West,270,6.0,11.0,74,0.00,,,-99.99,,2013-03-09 03:01:00,
2013-03-08 20:11:00,37.0,30.0,-100.00,West,275,6.0,10.0,74,0.00,,,-99.99,,2013-03-09 03:11:00,
2013-03-08 20:21:00,37.0,30.0,-100.00,West,270,4.0,7.0,74,0.00,,,-99.99,,2013-03-09 03:21:00,
2013-03-08 20:31:00,37.0,29.0,-100.00,West,280,3.0,7.0,75,0.00,,,-99.99,,2013-03-09 03:31:00,
2013-03-08 20:41:00,36.0,29.0,-100.00,WSW,240,0.0,6.0,75,0.00,,,-99.99,,2013-03-09 03:41:00,
2013-03-08 20:52:00,35.0,29.0,-100.00,SSE,155,0.0,2.0,76,0.00,,,-99.99,,2013-03-09 03:52:00,
2013-03-08 21:01:00,35.0,29.0,-100.00,SSW,195,0.0,2.0,76,0.00,,,-99.99,,2013-03-09 04:01:00,
2013-03-08 21:11:00,34.0,28.0,-100.00,SSW,195,0.0,0.0,77,0.00,,,-99.99,,2013-03-09 04:11:00,
2013-03-08 21:22:00,34.0,28.0,-100.00,WSW,240,0.0,3.0,78,0.00,,,-99.99,,2013-03-09 04:22:00,
2013-03-08 21:32:00,34.0,28.0,-100.00,WSW,245,0.0,2.0,79,0.00,,,-99.99,,2013-03-09 04:32:00,
2013-03-08 21:41:00,33.0,28.0,-100.00,WSW,245,0.0,0.0,80,0.00,,,-99.99,,2013-03-09 04:41:00,
2013-03-08 21:51:00,33.0,28.0,-100.00,WSW,245,0.0,0.0,81,0.00,,,-99.99,,2013-03-09 04:51:00,
2013-03-08 22:02:00,33.0,28.0,-100.00,WSW,245,0.0,1.0,82,0.00,,,-99.99,,2013-03-09 05:02:00,
2013-03-08 22:12:00,33.0,28.0,-100.00,West,260,1.0,2.0,82,0.00,,,-99.99,,2013-03-09 05:12:00,
2013-03-08 22:21:00,33.0,28.0,-100.00,NW,325,0.0,1.0,84,0.00,,,-99.99,,2013-03-09 05:21:00,
2013-03-08 22:31:00,32.0,28.0,-100.00,ESE,115,2.0,3.0,84,0.00,,,-99.99,,2013-03-09 05:31:00,
2013-03-08 22:42:00,31.0,28.0,-100.00,ESE,120,0.0,3.0,84,0.00,,,-99.99,,2013-03-09 05:42:00,
2013-03-08 22:52:00,31.0,28.0,-100.00,SE,125,0.0,2.0,85,0.00,,,-99.99,,2013-03-09 05:52:00,
2013-03-08 23:01:00,31.0,27.0,-100.00,SE,125,0.0,0.0,86,0.00,,,-99.99,,2013-03-09 06:01:00,
2013-03-08 23:11:00,31.0,27.0,-100.00,SE,125,0.0,0.0,86,0.00,,,-99.99,,2013-03-09 06:11:00,
2013-03-08 23:22:00,31.0,28.0,-100.00,West,275,2.0,4.0,87,0.00,,,-99.99,,2013-03-09 06:22:00,
2013-03-08 23:32:00,31.0,28.0,-100.00,West,275,0.0,2.0,87,0.00,,,-99.99,,2013-03-09 06:32:00,
2013-03-08 23:42:00,32.0,29.0,-100.00,West,275,4.0,5.0,88,0.00,,,-99.99,,2013-03-09 06:42:00,
2013-03-08 23:51:00,33.0,30.0,-100.00,WNW,300,9.0,11.0,89,0.00,,,-99.99,,2013-03-09 06:51:00,